Location: Unspecified
(50.0077°N, 36.2988°E)
Time: 03:36:24
(UTC+00:00)

X-37B - Pass Details

Date: 23 September 2020
Orbit: 382 x 392 km, 45.0° (Epoch: 15 October)

Event Time Altitude Azimuth Distance (km) Brightness Sun altitude
Exits shadow 01:50:44 17° 188° (S) 1,064 2.5 -15.4°
Drops below altitude 10° 01:52:23 10° 158° (SSE) 1,399 3.4 -15.1°
Sets 01:54:53 0° 138° (SE) 2,251 4.8 -14.8°
